Regional Weather Roundup
Issued by NWS

Home | Current Version | Previous Version | Graphics & Text | Print | Product List | Glossary On
Versions: 1 2 3 4 5 6 7 8 9 10 11 12 13 14 15 16 17 18 19 20 21 22 23 24 25 26 27 28 29 30 31 32 33 34 35 36 37 38 39 40 41 42 43 44 45 46 47 48 49 50
000
ASUS45 KABQ 131110
RWRNM
WEATHER ROUNDUP FOR NEW MEXICO
NATIONAL WEATHER SERVICE ALBUQUERQUE NM
500 AM MDT SUN JUL 13 2014

NOTE: "FAIR" MEANS FEW OR NO CLOUDS BELOW 12,000 FEET AGL WITH NO
       SIGNIFICANT WEATHER OR OBSTRUCTIONS TO VISION.

      THIS PRODUCT IS RELEASED AS TWO VERSIONS.  ONE VERSION NEAR
      THE TOP OF THE HOUR CONTAINING PRELIMINARY DATA FROM ALBUQUERQUE
      AND OTHER STATIONS.  A FINAL VERSION WITH ADDITIONAL DATA IS
      ISSUED ABOUT 10 MINUTES AFTER THE HOUR.

NMZ501-503-504-510>518-131200-
NORTHWEST PLATEAU/NORTHCENTRAL MOUNTAINS

CITY           SKY/WX    TMP DP  RH WIND       PRES   REMARKS
FARMINGTON     CLEAR     68  50  52 E7        30.25R
LOS ALAMOS     PTCLDY    65  49  57 SW5       30.42R
SANTA FE       MOCLDY    62  50  64 S3        30.34S
TAOS             N/A    N/A N/A N/A MISG        N/A
ANGEL FIRE     CLOUDY    52  50  95 CALM      30.52S

$$
NMZ402-403-502-505>509-131200-
WESTCENTRAL MOUNTAINS/SOUTHWEST MOUNTAINS

CITY           SKY/WX    TMP DP  RH WIND       PRES   REMARKS
GALLUP         MOCLDY    60  56  86 E5        30.32R
GRANTS         PTCLDY    58  54  86 CALM      30.34R
SILVER CITY    MOCLDY    64  54  68 N7        30.25S

$$
NMZ407-409-411-412-131200-
SOUTHERN DESERTS

CITY           SKY/WX    TMP DP  RH WIND       PRES   REMARKS
LORDSBURG      PTSUNNY   70  59  68 S6        30.14S
DEMING         MOCLDY    70  58  65 NE8       30.16R
LAS CRUCES     PTCLDY    69  58  68 SE3       30.19R
HOLLOMAN AFB   MOCLDY    70  58  65 NE6       30.16R
ALAMOGORDO     MOCLDY    68  59  73 N5        30.18S
T OR C         MOCLDY    70  59  68 N3        30.20R

$$
NMZ519>523-131200-
CENTRAL VALLEYS/CENTRAL HIGHLANDS

CITY           SKY/WX    TMP DP  RH WIND       PRES   REMARKS
ALBUQUERQUE    MOCLDY    71  53  52 E10       30.27R
DOUBLE EAGLE   PTCLDY    65  53  65 S3        30.31R
MORIARTY ARPT  FAIR      54  49  85 NW3       30.35S
CLINES CORNERS PTCLDY    61  50  67 NE10      30.39R
BELEN          FAIR      67  56  68 SE5       30.25S
SOCORRO        FAIR      68  54  60 SW5       30.23R

$$
NMZ524>526-539-540-131200-
SOUTHCENTRAL MOUNTAINS

CITY           SKY/WX    TMP DP  RH WIND       PRES   REMARKS
RUIDOSO        CLEAR     59  54  82 NW6       30.37S

$$
NMZ527>531-131200-
NORTHEAST HIGHLANDS/NORTHEAST PLAINS

CITY           SKY/WX    TMP DP  RH WIND       PRES   REMARKS
LAS VEGAS      MOCLDY    57  49  74 N7        30.40S
RATON          CLOUDY    63  53  70 NW5       30.36R
CLAYTON        CLOUDY    68  56  65 N10       30.29R

$$
NMZ532>537-131200-
EASTCENTRAL PLAINS

CITY           SKY/WX    TMP DP  RH WIND       PRES   REMARKS
TUCUMCARI      MOCLDY    74  58  57 E10       30.22R
CANNON AFB     MOCLDY    68  61  79 S3        30.23S
CLOVIS AIRPORT NOT AVBL

$$
NMZ028-029-538-131200-
SOUTHEAST PLAINS

CITY           SKY/WX    TMP DP  RH WIND       PRES   REMARKS
ROSWELL        CLEAR     68  62  81 SE3       30.16S
ARTESIA        CLEAR     68  61  77 SE3       30.17S
CARLSBAD       CLEAR     70  62  76 CALM      30.14S


$$



USA.gov is the U.S. government's official web portal to all federal, state and local government web resources and services.